When you browse on this site, cookies collect data to enhance your experience and personalize the content and advertising you see.
Visit our Privacy Policy to learn more. By continuing to use the site, you agree to this use of cookies and data.
  • en France
  • Liste des pays
  • À 7 jours
  • Température de l'eau
  • Carte satellitaire
  • Carte météo
  • Widgets météo
  • user-avatar
    Se connecter

    Météo par heure à Scherbovskiy

    Ce jour, 21 Mai, Mardi

    Heure Température Précipitation Vent Pression Humidité
    00:00 +14°C° 0 mm 2 m/s 751 mmHg 84%
    01:00 +14°C° 0 mm 2 m/s 751 mmHg 85%
    02:00 +14°C° 0 mm 2 m/s 751 mmHg 86%
    03:00 +14°C° 0 mm 2 m/s 751 mmHg 86%
    04:00 +14°C° 0 mm 2 m/s 751 mmHg 87%
    05:00 +14°C° 0 mm 2 m/s 751 mmHg 87%
    06:00 +16°C° 0 mm 2 m/s 751 mmHg 81%
    07:00 +18°C° 0 mm 2 m/s 751 mmHg 75%
    08:00 +20°C° 0 mm 2 m/s 751 mmHg 69%
    09:00 +21°C° 0 mm 3 m/s 751 mmHg 66%
    10:00 +21°C° 0 mm 3 m/s 751 mmHg 62%
    11:00 +22°C° 0 mm 4 m/s 751 mmHg 59%
    12:00 +22°C° 0 mm 4 m/s 750 mmHg 58%
    13:00 +23°C° 0 mm 4 m/s 750 mmHg 57%
    14:00 +23°C° 0 mm 5 m/s 750 mmHg 56%
    15:00 +22°C° 0 mm 4 m/s 749 mmHg 59%
    16:00 +22°C° 0 mm 4 m/s 749 mmHg 63%
    17:00 +22°C° 0 mm 3 m/s 749 mmHg 67%
    18:00 +20°C° 0 mm 3 m/s 748 mmHg 71%
    19:00 +18°C° 0 mm 3 m/s 748 mmHg 76%
    20:00 +16°C° 0 mm 3 m/s 748 mmHg 81%
    21:00 +15°C° 0 mm 2 m/s 748 mmHg 82%
    22:00 +14°C° 0 mm 2 m/s 748 mmHg 83%
    23:00 +13°C° 0 mm 2 m/s 748 mmHg 85%

    Demain, 22 Mai, Mercredi

    Heure Température Précipitation Vent Pression Humidité
    00:00 +13°C° 0 mm 2 m/s 748 mmHg 86%
    01:00 +13°C° 0 mm 2 m/s 747 mmHg 88%
    02:00 +12°C° 0 mm 3 m/s 747 mmHg 89%
    03:00 +13°C° 0 mm 2 m/s 747 mmHg 89%
    04:00 +13°C° 0 mm 2 m/s 747 mmHg 89%
    05:00 +14°C° 0 mm 2 m/s 746 mmHg 89%
    06:00 +14°C° 0.1 mm 3 m/s 746 mmHg 89%
    07:00 +16°C° 0.1 mm 3 m/s 746 mmHg 88%
    08:00 +17°C° 0.1 mm 4 m/s 746 mmHg 87%
    09:00 +17°C° 0 mm 4 m/s 745 mmHg 86%
    10:00 +18°C° 0 mm 4 m/s 745 mmHg 85%
    11:00 +18°C° 0 mm 4 m/s 745 mmHg 84%
    12:00 +19°C° 0.1 mm 4 m/s 744 mmHg 80%
    13:00 +21°C° 0.1 mm 4 m/s 744 mmHg 76%
    14:00 +22°C° 0.1 mm 4 m/s 744 mmHg 73%
    15:00 +22°C° 0.2 mm 3 m/s 743 mmHg 74%
    16:00 +21°C° 0.2 mm 3 m/s 743 mmHg 75%
    17:00 +21°C° 0.2 mm 3 m/s 743 mmHg 76%
    18:00 +20°C° 0 mm 3 m/s 742 mmHg 82%
    19:00 +19°C° 0 mm 3 m/s 742 mmHg 87%
    20:00 +17°C° 0 mm 2 m/s 742 mmHg 92%
    21:00 +16°C° 0 mm 2 m/s 742 mmHg 92%
    22:00 +16°C° 0 mm 2 m/s 742 mmHg 93%
    23:00 +15°C° 0 mm 2 m/s 742 mmHg 93%

    Après-demain, 23 Mai, Jeudi

    Heure Température Précipitation Vent Pression Humidité
    00:00 +15°C° 0 mm 2 m/s 742 mmHg 94%
    01:00 +15°C° 0 mm 2 m/s 742 mmHg 94%
    02:00 +14°C° 0 mm 2 m/s 742 mmHg 94%
    03:00 +14°C° 0 mm 2 m/s 742 mmHg 94%
    04:00 +15°C° 0 mm 2 m/s 742 mmHg 93%
    05:00 +15°C° 0 mm 2 m/s 742 mmHg 93%
    06:00 +17°C° 0 mm 3 m/s 742 mmHg 87%
    07:00 +19°C° 0 mm 3 m/s 742 mmHg 82%
    08:00 +21°C° 0 mm 3 m/s 742 mmHg 76%
    09:00 +22°C° 0.1 mm 3 m/s 742 mmHg 69%
    10:00 +24°C° 0.1 mm 3 m/s 742 mmHg 62%
    11:00 +25°C° 0.1 mm 3 m/s 741 mmHg 56%
    12:00 +26°C° 0.1 mm 3 m/s 741 mmHg 54%
    13:00 +26°C° 0.1 mm 4 m/s 741 mmHg 53%
    14:00 +26°C° 0.1 mm 4 m/s 741 mmHg 52%
    15:00 +26°C° 0.2 mm 3 m/s 741 mmHg 57%
    16:00 +26°C° 0.2 mm 3 m/s 741 mmHg 62%
    17:00 +25°C° 0.2 mm 2 m/s 741 mmHg 66%
    18:00 +23°C° 0.1 mm 2 m/s 741 mmHg 73%
    19:00 +20°C° 0.1 mm 2 m/s 741 mmHg 79%
    20:00 +19°C° 0.1 mm 1 m/s 741 mmHg 85%
    21:00 +18°C° 0 mm 1 m/s 742 mmHg 86%
    22:00 +18°C° 0 mm 1 m/s 742 mmHg 88%
    23:00 +15°C° 0 mm 0 m/s 742 mmHg 89%

    24 Mai, Vendredi

    Heure Température Précipitation Vent Pression Humidité
    00:00 +15°C° 0 mm 0 m/s 742 mmHg 89%
    01:00 +14°C° 0 mm 0 m/s 742 mmHg 90%
    02:00 +14°C° 0 mm 0 m/s 742 mmHg 90%
    03:00 +14°C° 0.1 mm 0 m/s 742 mmHg 91%
    04:00 +15°C° 0.1 mm 0 m/s 742 mmHg 91%
    05:00 +15°C° 0.1 mm 0 m/s 742 mmHg 91%
    06:00 +19°C° 0.7 mm 1 m/s 742 mmHg 87%
    07:00 +20°C° 0.7 mm 1 m/s 742 mmHg 83%
    08:00 +22°C° 0.7 mm 1 m/s 743 mmHg 79%
    09:00 +21°C° 1.7 mm 2 m/s 743 mmHg 75%
    10:00 +23°C° 1.7 mm 2 m/s 743 mmHg 71%
    11:00 +24°C° 1.7 mm 2 m/s 743 mmHg 67%
    12:00 +24°C° 0.7 mm 2 m/s 742 mmHg 67%
    13:00 +24°C° 0.7 mm 2 m/s 742 mmHg 66%
    14:00 +24°C° 0.7 mm 2 m/s 742 mmHg 66%
    15:00 +24°C° 0.5 mm 2 m/s 742 mmHg 69%
    16:00 +24°C° 0.5 mm 2 m/s 742 mmHg 73%
    17:00 +24°C° 0.5 mm 3 m/s 741 mmHg 77%
    18:00 +21°C° 0.2 mm 3 m/s 741 mmHg 81%
    19:00 +20°C° 0.2 mm 3 m/s 741 mmHg 85%
    20:00 +18°C° 0.2 mm 3 m/s 741 mmHg 89%
    21:00 +17°C° 0 mm 3 m/s 741 mmHg 90%
    22:00 +17°C° 0 mm 3 m/s 741 mmHg 92%
    23:00 +16°C° 0 mm 3 m/s 741 mmHg 93%

    25 Mai, Samedi

    Heure Température Précipitation Vent Pression Humidité
    00:00 +16°C° 0.7 mm 2 m/s 741 mmHg 94%
    01:00 +16°C° 0.7 mm 2 m/s 741 mmHg 94%
    02:00 +15°C° 0.7 mm 2 m/s 740 mmHg 95%
    03:00 +16°C° 0 mm 2 m/s 740 mmHg 95%
    04:00 +16°C° 0 mm 2 m/s 740 mmHg 94%
    05:00 +16°C° 0 mm 2 m/s 740 mmHg 94%
    06:00 +18°C° 0.2 mm 3 m/s 740 mmHg 89%
    07:00 +19°C° 0.2 mm 3 m/s 740 mmHg 84%
    08:00 +21°C° 0.2 mm 4 m/s 740 mmHg 80%
    09:00 +21°C° 0.2 mm 4 m/s 740 mmHg 75%
    10:00 +22°C° 0.2 mm 5 m/s 739 mmHg 71%
    11:00 +23°C° 0.2 mm 5 m/s 739 mmHg 67%
    12:00 +22°C° 0.7 mm 5 m/s 739 mmHg 69%
    13:00 +22°C° 0.7 mm 5 m/s 739 mmHg 71%
    14:00 +22°C° 0.7 mm 5 m/s 738 mmHg 73%
    15:00 +22°C° 0.5 mm 4 m/s 738 mmHg 75%
    16:00 +22°C° 0.5 mm 4 m/s 738 mmHg 77%
    17:00 +21°C° 0.5 mm 3 m/s 738 mmHg 79%
    18:00 +20°C° 1.9 mm 3 m/s 737 mmHg 83%
    19:00 +19°C° 1.9 mm 3 m/s 737 mmHg 87%
    20:00 +17°C° 1.9 mm 2 m/s 737 mmHg 91%
    21:00 +17°C° 0.2 mm 2 m/s 737 mmHg 93%
    22:00 +16°C° 0.2 mm 2 m/s 737 mmHg 94%
    23:00 +16°C° 0.2 mm 2 m/s 737 mmHg 95%

    26 Mai, Dimanche

    Heure Température Précipitation Vent Pression Humidité
    00:00 +15°C° 0 mm 2 m/s 737 mmHg 96%
    01:00 +15°C° 0 mm 2 m/s 737 mmHg 96%
    02:00 +14°C° 0 mm 2 m/s 737 mmHg 97%
    03:00 +15°C° 0 mm 2 m/s 737 mmHg 97%
    04:00 +14°C° 0 mm 3 m/s 737 mmHg 97%
    05:00 +14°C° 0 mm 3 m/s 738 mmHg 96%
    06:00 +16°C° 0 mm 3 m/s 738 mmHg 94%
    07:00 +16°C° 0 mm 3 m/s 738 mmHg 91%
    08:00 +17°C° 0 mm 3 m/s 738 mmHg 88%
    09:00 +18°C° 0 mm 4 m/s 738 mmHg 78%
    10:00 +20°C° 0 mm 4 m/s 738 mmHg 69%
    11:00 +21°C° 0 mm 5 m/s 738 mmHg 60%
    12:00 +21°C° 0 mm 4 m/s 738 mmHg 58%
    13:00 +22°C° 0 mm 4 m/s 738 mmHg 57%
    14:00 +23°C° 0 mm 4 m/s 738 mmHg 56%
    15:00 +22°C° 0.3 mm 4 m/s 739 mmHg 63%
    16:00 +21°C° 0.3 mm 4 m/s 739 mmHg 70%
    17:00 +20°C° 0.3 mm 4 m/s 739 mmHg 77%
    18:00 +19°C° 0.1 mm 4 m/s 739 mmHg 81%
    19:00 +17°C° 0.1 mm 4 m/s 740 mmHg 85%
    20:00 +14°C° 0.1 mm 3 m/s 740 mmHg 89%
    21:00 +13°C° 0 mm 3 m/s 740 mmHg 89%
    22:00 +12°C° 0 mm 3 m/s 741 mmHg 89%
    23:00 +11°C° 0 mm 3 m/s 741 mmHg 90%
    Voir plus